Main page
METAR-TAF:

METAR-TAF

Airports :

Abu Simbel Airport

Abu Simbel, Egypt

latitude: 22-22-33N, longitude: 31-36-42E, elevation: 188 m

Current weather observation

The report was made 33 minutes ago, at 03:00 UTC
Wind 6 kt from the North/Northwest
Temperature 14°C
Humidity 51%
Pressure 1016 hPa
Visibility 10 km or more
no clouds below 1500 m and no cumulonimbus

METAR: HEBL 030300Z 33006KT CAVOK 14/04 Q1016 NOSIG

Time: 05:33 (03:33 UTC)

Forecast

The report was made 4 hours and 33 minutes ago, at 23:00 UTC
Forecast valid from 03 at 00 UTC to 04 at 06 UTC
Wind 12 kt from the North
Visibility 10 km or more
no clouds below 1500 m and no cumulonimbus

TAF: HEBL 022300Z 0300/0406 01012KT CAVOK

Weather observations and forecasts of more than 4000 airports (METAR and TAF reports).

The available stations are represented by yellow and red dots on the map.

Hover mouse over dot to see the name of the station.

Then click to see weather observations and forecasts.

To change the map : click on the green buttons with a black cross to zoom in, on the green button with a dash to zoom out, or on the green arrows for adjacent maps.


METAR-TAF: